[[{"header":{"parameterUnit":"m.s-1","parameterCategory":1,"la1":30.2992,"la2":30.254,"lo1":-89.0895,"lo2":-89.0443,"dy":0.0025,"dx":0.0025,"nx":19,"ny":19,"refTime":"2026-04-05T03:00:00:Z","depth":0,"parameterNumber":2,"parameterNumberName":"U-component_of_WINDS"},"data":[0,0,0,-1.656,-1.6561,-1.6634,-1.6634,-1.6727,-1.6728,0,0,0,0,0,0,0,0,0,0,0,-1.654,-1.654,-1.6559,-1.6561,-1.6634,-1.6634,-1.6727,-1.6728,0,0,0,0,0,0,0,0,0,0,0,-1.6539,-1.654,-1.6541,-1.6562,-1.6634,-1.6634,-1.6727,-1.6672,0,0,0,0,0,0,0,0,0,0,-1.6601,-1.6585,-1.654,-1.6541,-1.6562,-1.6634,-1.6634,-1.6669,-1.6675,-1.6695,0,-1.6714,0,-1.6723,-1.6734,-1.6735,0,0,0,-1.656,-1.658,-1.6598,-1.6541,-1.6563,-1.6634,-1.6601,-1.6672,-1.6679,-1.6703,-1.6716,-1.6719,-1.6724,-1.6735,-1.6736,-1.6857,-1.6858,0,0,-1.6556,-1.6554,-1.6593,-1.6602,-1.6593,-1.6598,-1.6603,-1.6677,-1.669,-1.6716,-1.6721,-1.6726,-1.6736,-1.6736,-1.6856,-1.6857,0,0,0,-1.6545,-1.6551,-1.6567,-1.6599,-1.6612,-1.6601,-1.6606,-1.6686,-1.6692,-1.6722,-1.6727,-1.6736,-1.6737,-1.6856,-1.6857,-1.6887,0,0,0,-1.6543,-1.6545,-1.6565,-1.6565,-1.661,-1.665,-1.6614,-1.6687,-1.6695,-1.6726,-1.6736,-1.6738,-1.6855,-1.6856,-1.6885,-1.6902,0,0,0,-1.6534,-1.6544,-1.6555,-1.6565,-1.6596,-1.6649,-1.6659,-1.6689,-1.6698,-1.6735,-1.6739,-1.6855,-1.6856,-1.6883,-1.6899,-1.6934,0,0,0,-1.6525,-1.6581,-1.6555,-1.662,-1.6595,-1.6668,-1.6659,-1.6712,-1.6747,-1.6737,-1.6855,-1.6857,-1.6882,-1.6897,-1.6932,-1.6964,-1.6977,0,0,-1.6594,-1.6589,-1.6627,-1.6606,-1.6683,-1.6657,-1.6737,-1.6771,-1.6775,-1.6829,-1.6832,-1.6886,-1.6899,-1.6933,-1.7049,-1.7059,0,0,0,-1.6648,-1.6676,-1.6696,-1.673,-1.6757,-1.6781,-1.6803,-1.6815,-1.6861,-1.6803,-1.6907,-1.6915,-1.6935,-1.6951,-1.696,-1.6977,-1.6863,-1.6863,-1.6863,-1.6745,-1.6748,-1.6811,-1.6822,-1.6854,-1.6875,-1.6901,-1.6921,-1.6914,-1.6939,-1.6955,-1.7025,-1.7043,-1.705,-1.7068,-1.6971,-1.6972,-1.6972,-1.6972,-1.6848,-1.6887,-1.6876,-1.6933,-1.6935,-1.6983,-1.7004,-1.6997,-1.7041,-1.7013,-1.7031,-1.7002,-1.7061,-1.7077,-1.6974,-1.6974,-1.6973,-1.6973,-1.6973,-1.6913,-1.6932,-1.6946,-1.6994,-1.7029,-1.7038,-1.708,-1.708,-1.708,-1.7098,-1.7115,-1.7114,-1.7114,-1.7106,-1.7106,-1.7106,-1.7106,-1.7107,-1.7107,-1.6975,-1.699,-1.7026,-1.7058,-1.7079,-1.7106,-1.7125,-1.7145,-1.7167,-1.7163,-1.7163,-1.7154,-1.7066,-1.7044,-1.711,-1.711,-1.7109,-1.7109,-1.7109,-1.7081,-1.7057,-1.7113,-1.7134,-1.717,-1.7205,-1.7204,-1.7244,-1.726,-1.728,-1.7266,-1.7201,-1.7195,-1.7188,-1.7171,-1.7265,-1.7265,-1.7265,-1.7265,-1.7137,-1.7133,-1.719,-1.7223,-1.7255,-1.7259,-1.732,-1.7334,-1.7345,-1.7355,-1.7341,-1.7316,-1.7309,-1.7308,-1.7299,-1.7282,-1.7403,-1.7403,-1.7403,-1.7202,-1.7201,-1.7255,-1.7266,-1.7294,-1.7318,-1.7375,-1.7412,-1.7419,-1.7409,-1.7363,-1.7357,-1.7318,-1.7305,-1.7296,-1.7281,-1.7251,0,0]},{"header":{"parameterUnit":"m.s-1","parameterCategory":1,"la1":30.2992,"la2":30.254,"lo1":-89.0895,"lo2":-89.0443,"dy":0.0025,"dx":0.0025,"nx":19,"ny":19,"refTime":"2026-04-05T03:00:00:Z","depth":0,"parameterNumber":3,"parameterNumberName":"V-component_of_WINDS"},"data":[0,0,0,-6.9153,-6.9155,-6.9256,-6.9257,-6.9399,-6.94,0,0,0,0,0,0,0,0,0,0,0,-6.9133,-6.9134,-6.9152,-6.9155,-6.9256,-6.9257,-6.9398,-6.94,0,0,0,0,0,0,0,0,0,0,0,-6.9132,-6.9134,-6.9136,-6.9156,-6.9256,-6.9257,-6.9398,-6.9317,0,0,0,0,0,0,0,0,0,0,-6.9216,-6.9208,-6.9134,-6.9136,-6.9156,-6.9256,-6.9257,-6.9312,-6.9322,-6.9359,0,-6.9397,0,-6.9401,-6.9411,-6.9411,0,0,0,-6.9147,-6.9201,-6.9219,-6.9136,-6.9157,-6.9256,-6.9208,-6.9317,-6.9328,-6.9371,-6.9399,-6.9404,-6.9404,-6.9412,-6.9412,-6.9663,-6.9665,0,0,-6.9141,-6.9156,-6.9212,-6.9226,-6.9215,-6.9205,-6.9212,-6.9323,-6.9354,-6.94,-6.9407,-6.9406,-6.9413,-6.9414,-6.9662,-6.9663,0,0,0,-6.9131,-6.9152,-6.9168,-6.9221,-6.9239,-6.9208,-6.9216,-6.9349,-6.9353,-6.9409,-6.9408,-6.9414,-6.9416,-6.966,-6.9662,-6.9756,0,0,0,-6.9127,-6.9146,-6.9166,-6.9176,-6.9237,-6.9296,-6.9239,-6.9345,-6.9357,-6.9407,-6.9414,-6.9417,-6.9658,-6.9661,-6.975,-6.9798,0,0,0,-6.9123,-6.9146,-6.9164,-6.9176,-6.9221,-6.9293,-6.9303,-6.9347,-6.9357,-6.9411,-6.9418,-6.9657,-6.9661,-6.9744,-6.9788,-6.9869,0,0,0,-6.9121,-6.9244,-6.9166,-6.9302,-6.922,-6.9351,-6.9303,-6.9399,-6.9456,-6.9414,-6.9658,-6.9662,-6.9742,-6.9783,-6.9863,-6.994,-6.9974,0,0,-6.9284,-6.9264,-6.9343,-6.9276,-6.9426,-6.9335,-6.9497,-6.9534,-6.9524,-6.9616,-6.9622,-6.9752,-6.9788,-6.9868,-7.0155,-7.0182,0,0,0,-6.94,-6.9457,-6.9493,-6.9551,-6.9584,-6.9616,-6.9627,-6.9641,-6.9719,-6.9576,-6.9802,-6.9822,-6.9869,-6.9905,-6.9928,-6.9967,-6.9679,-6.9679,-6.9678,-6.9651,-6.9635,-6.9764,-6.976,-6.9815,-6.9827,-6.9869,-6.9889,-6.9853,-6.9907,-6.9935,-7.0112,-7.0155,-7.0172,-7.0212,-6.9973,-6.9974,-6.9974,-6.9974,-6.9889,-6.9968,-6.992,-7.0029,-7.0009,-7.0099,-7.0113,-7.0085,-7.0165,-7.0089,-7.0129,-7.0048,-7.0202,-7.0236,-6.9981,-6.998,-6.9979,-6.9979,-6.9978,-7.0053,-7.0088,-7.0104,-7.0186,-7.025,-7.0239,-7.0319,-7.0297,-7.0276,-7.0316,-7.0343,-7.0341,-7.0337,-7.033,-7.0331,-7.0331,-7.0332,-7.0332,-7.0333,-7.0217,-7.0232,-7.0304,-7.035,-7.0384,-7.0426,-7.0438,-7.047,-7.05,-7.0477,-7.0477,-7.0437,-7.022,-7.0167,-7.0342,-7.034,-7.0339,-7.0338,-7.0338,-7.0466,-7.0406,-7.0517,-7.0552,-7.0604,-7.0669,-7.064,-7.0708,-7.073,-7.077,-7.0721,-7.0564,-7.0541,-7.0523,-7.0479,-7.0724,-7.0724,-7.0724,-7.0725,-7.0605,-7.0592,-7.07,-7.0757,-7.081,-7.0795,-7.0919,-7.0929,-7.0929,-7.0942,-7.0903,-7.0842,-7.0824,-7.0812,-7.0787,-7.0746,-7.1054,-7.1054,-7.1054,-7.0757,-7.0748,-7.086,-7.0862,-7.0902,-7.0935,-7.1051,-7.1116,-7.1103,-7.1067,-7.0952,-7.0938,-7.0839,-7.0808,-7.077,-7.0732,-7.0655,0,0]}]]